Farmington, NM

7:15 PM MST on November 19, 2017 (GMT -0700)
Four Corners Regional

Weather History for KFMN - August, 2013

Change the Weather History Date:

Wednesday, August 28, 2013

  Actual Average Record
Temperature  
Mean Temperature 74 °F -  
Max Temperature 90 °F 85 °F 96 °F (2011)
Min Temperature 59 °F 56 °F 46 °F (1978)
Cooling Degree Days 10    
Growing Degree Days 24 (Base 50)    
Moisture  
Dew Point 52 °F    
Average Humidity 48    
Maximum Humidity 90    
Minimum Humidity 12    
Precipitation  
Precipitation 0.00 in - - ()
Sea Level Pressure  
Sea Level Pressure 29.99 in    
Wind  
Wind Speed 5 mph (WSW)    
Max Wind Speed 9 mph    
Max Gust Speed -    
Visibility 10 miles    
Events      
Averages and records for this station are not official NWS values.
T = Trace of Precipitation, MM = Missing Value Source: NWS Daily Summary

Daily Weather History Graph

Daily Weather History Graph

Search for Another Location

Airport or City:

Trip Planner

Search our weather history database for the weather conditions in past years. The results will help you decide how hot, cold, wet, or windy it might be!

Date:

Astronomy

Aug. 28, 2013 Rise Set
Actual Time 6:41 AM MDT 7:46 PM MDT
Civil Twilight 6:14 AM MDT 8:13 PM MDT
Nautical Twilight 5:42 AM MDT 8:44 PM MDT
Astronomical Twilight 5:09 AM MDT 9:17 PM MDT
Moon No Moon Rise 2:22 PM MDT (8/28)
Length of Visible Light 13h 58m
Length of Day
13h 05m
Waning Gibbous, 47% of the Moon is Illuminated
Aug 28
Waning Gibbous
Sep 5
New
Sep 12
First Quarter
Sep 19
Full
Sep 26
Last Quarter

Hourly Weather History & Observations

Time (MDT) Temp. Heat Index Dew Point Humidity Pressure Visibility Wind Dir Wind Speed Gust Speed Precip Events Conditions
12:53 AM 68.0 °F - 57.9 °F 70% 29.97 in 10.0 mi West 9.2 mph - N/A   Clear
1:53 AM 66.9 °F - 57.9 °F 73% 29.97 in 10.0 mi WSW 4.6 mph - N/A   Clear
2:53 AM 66.0 °F - 57.0 °F 73% 29.97 in 10.0 mi Calm Calm - N/A   Clear
3:53 AM 64.0 °F - 57.0 °F 78% 29.97 in 10.0 mi Calm Calm - N/A   Clear
4:53 AM 62.1 °F - 57.0 °F 84% 29.99 in 10.0 mi ENE 3.5 mph - N/A   Clear
5:53 AM 60.1 °F - 57.0 °F 90% 30.00 in 10.0 mi Calm Calm - N/A   Clear
6:53 AM 60.1 °F - 57.0 °F 90% 30.04 in 10.0 mi Calm Calm - N/A   Clear
7:53 AM 64.9 °F - 59.0 °F 81% 30.04 in 10.0 mi East 5.8 mph - N/A   Clear
8:53 AM 68.0 °F - 57.9 °F 70% 30.06 in 10.0 mi ESE 3.5 mph - N/A   Clear
9:53 AM 72.0 °F - 57.9 °F 61% 30.05 in 10.0 mi ESE 5.8 mph - N/A   Clear
10:53 AM 75.0 °F - 57.9 °F 55% 30.05 in 10.0 mi Variable 4.6 mph - N/A   Clear
11:53 AM 79.0 °F - 57.0 °F 47% 30.04 in 10.0 mi Calm Calm - N/A   Clear
12:53 PM 82.0 °F 81.7 °F 57.0 °F 42% 30.01 in 10.0 mi WSW 9.2 mph - N/A   Clear
1:53 PM 87.1 °F 85.1 °F 54.0 °F 32% 29.99 in 10.0 mi Variable 6.9 mph - N/A   Clear
2:53 PM 88.0 °F - 51.1 °F 28% 29.96 in 10.0 mi WNW 8.1 mph - N/A   Clear
3:53 PM 89.1 °F - 43.0 °F 20% 29.93 in 10.0 mi WSW 6.9 mph - N/A   Clear
4:53 PM 89.1 °F - 37.9 °F 16% 29.92 in 10.0 mi South 4.6 mph - N/A   Clear
5:53 PM 88.0 °F - 42.1 °F 20% 29.93 in 10.0 mi WSW 8.1 mph - N/A   Clear
6:53 PM 86.0 °F - 43.0 °F 22% 29.94 in 10.0 mi WSW 8.1 mph - N/A   Clear
7:53 PM 82.0 °F - 44.1 °F 26% 29.95 in 10.0 mi West 6.9 mph - N/A   Clear
8:53 PM 80.1 °F - 44.1 °F 28% 29.97 in 10.0 mi WNW 8.1 mph - N/A   Scattered Clouds
9:53 PM 77.0 °F - 46.0 °F 33% 29.98 in 10.0 mi Calm Calm - N/A   Mostly Cloudy
10:53 PM 75.9 °F - 48.0 °F 37% 29.99 in 10.0 mi WNW 5.8 mph - N/A   Mostly Cloudy
11:53 PM 73.9 °F - 50.0 °F 43% 30.01 in 10.0 mi SSW 3.5 mph - N/A   Partly Cloudy